Монлюсон

Франция     46°20′25″N   2°36′40″E
темп.,
°C
ветер,
м/с
пор.,
м/с
влажн.,
%
обл.,
%
осадки,
мм/ч
давл.,
гПа
погр.,
м
12 апреля, пн
пн1223:00+3сз2597100 0.1 1023452
02:00+2с379899 0.5 1026387
05:00+1с239679 0.1 1027210
08:000с239655 0.1 1029170
11:00+4ссв35725 0.0 1030847
14:00+8с55455 0.0 10291796
17:00+8с664797 0.0 10282008
20:00+5с367169 0.0 1029118
13 апреля, вт
вт1323:000ссз11825 0.0 103110
02:00−1юз11835 0.0 103110
05:00−2зюз00865 0.0 103110
08:00−1св01855 0.0 103114
11:00+5ссв357487 0.0 1031808
14:00+8с455215 0.1 10301514
17:00+10ссв564541 0.0 10271592
20:00+5ссв496352 0.0 1028339
14 апреля, ср
ср1423:000св23845 0.0 102928
02:00−2всв128917 0.0 102910
05:00−3всв229123 0.0 102817
08:00−2св25835 0.0 1028144
11:00+7всв68520 0.0 10271034
14:00+10всв56412 0.0 10251612
17:00+11ссв56395 0.0 10232003
20:00+6ссв510635 0.0 1024444
15 апреля, чт
чт1523:00+1св38815 0.0 1026161
02:00−1св22895 0.0 102710
05:00−3св22900 0.0 102610
08:00−2св22850 0.0 102668
11:00+7всв58555 0.0 10251087
14:00+10всв56435 0.0 10231694
17:00+11ссв56435 0.0 10201828
20:00+6ссв510645 0.0 1021440
16 апреля, пт
пт1623:000ссв23884 0.0 102339
02:00−2св11914 0.0 102210
05:00−3св11934 0.0 102110
08:00−2св12905 0.0 102163
11:00+6св45627 0.0 1019713
14:00+9св4550100 0.0 10171635
17:00+10св5745100 0.0 10151963
20:00+7ссв3675100 0.4 1017144